Simultaneous Nadir Overpasses (SNOs) Predictions

Prediction of SNOs between METOP-B and NOAA-19 Satellite Orbit:

Table of predicted SNOs for the next 14.0 days since TLE Epoch: 10/8/2022
Index Date (METOP-B) Time (METOP-B) Lat,Lon (METOP-B) SZA (METOP-B ) Date (NOAA-19) Time (NOAA-19) Lat,Lon (NOAA-19) SZA (NOAA-19 ) Distance(km) Time Diff (sec)
1 10/16/2022 18:30:16 80.89, -63.05 91.85 10/16/2022 18:29:20 80.90, -63.14 91.82 1.83 56
2 10/16/2022 19:20:57 -80.90, 104.42 88.13 10/16/2022 19:20:14 -80.89, 104.56 88.14 2.55 43
3 10/16/2022 20:11:38 80.88, -88.52 91.85 10/16/2022 20:11:19 80.89, -88.38 91.87 2.83 19
4 10/16/2022 21:02:19 -80.89, 78.94 88.12 10/16/2022 21:02:14 -80.89, 78.95 88.12 0.45 5
5 10/16/2022 21:52:59 80.89,-113.64 91.91 10/16/2022 21:53:18 80.89,-113.62 91.92 0.51 19
6 10/16/2022 22:43:40 -80.90, 53.82 88.06 10/16/2022 22:44:13 -80.89, 53.71 88.07 2.33 33
7 10/16/2022 23:34:21 80.89,-139.12 91.92 10/16/2022 23:35:18 80.89,-139.23 91.93 2.02 57



Historial Predications of SNOs between METOP-B and NOAA-19
